Weather History for London-Corbin, KY

Change the Weather History Date:

Friday, January 27, 2012

  Actual Average Record
Temperature  
Mean Temperature 46 °F 36 °F  
Max Temperature 57 °F 46 °F 67 °F (1974)
Min Temperature 34 °F 27 °F -9 °F (1963)
Degree Days  
Heating Degree Days 19 29  
Month to date heating degree days 695 800  
Since 1 July heating degree days 2262 2452  
Cooling Degree Days 0 0  
Month to date cooling degree days 0 0  
Year to date cooling degree days 0 0  
Moisture  
Dew Point 38 °F    
Average Humidity 90    
Maximum Humidity 100    
Minimum Humidity 79    
Precipitation  
Precipitation 0.04 in 0.11 in 1.54 in (2009)
Month to date precipitation 3.93 3.06  
Year to date precipitation 3.93 3.06  
Sea Level Pressure  
Sea Level Pressure 29.88 in    
Wind  
Wind Speed 8 mph (West)    
Max Wind Speed 28 mph    
Max Gust Speed 38 mph    
Visibility 10 miles    
Events Rain    
T = Trace of Precipitation, MM = Missing Value Source: NWS Daily Summary

Daily Weather History Graph

Daily Weather History Graph

Search for Another Location

Airport:

Trip Planner

Search our weather history database for the weather conditions in past years. The results will help you decide how hot, cold, wet, or windy it might be!

Date:

Astronomy

Jan. 27, 2012 Rise Set
Actual Time 7:43 AM EST 5:55 PM EST
Civil Twilight 7:15 AM EST 6:22 PM EST
Nautical Twilight 6:44 AM EST 6:54 PM EST
Astronomical Twilight 6:13 AM EST 7:25 PM EST
Moon 9:45 AM EST (1/27) 10:36 PM EST (1/27)
Length of Visible Light 11h 07m
Length of Day
10h 12m
Waxing Crescent, 19% of the Moon is Illuminated
Jan 27
Waxing Crescent
Jan 30
First Quarter
Feb 7
Full
Feb 14
Last Quarter
Feb 21
New

Hourly Weather History & Observations

Time (EST) Temp. Windchill Dew Point Humidity Pressure Visibility Wind Dir Wind Speed Gust Speed Precip Events Conditions
12:10 AM 55.4 °F - 53.6 °F 94% 29.56 in 10.0 mi West 24.2 mph 35.7 mph 0.04 in Rain Light Rain
12:43 AM 51.8 °F - 50.0 °F 94% 29.57 in 10.0 mi WNW 15.0 mph 25.3 mph 0.06 in Rain Light Rain
12:53 AM 51.1 °F - 48.9 °F 92% 29.57 in 10.0 mi West 11.5 mph 21.9 mph 0.07 in   Mostly Cloudy
1:03 AM 51.8 °F - 48.2 °F 88% 29.59 in 10.0 mi West 9.2 mph - N/A   Mostly Cloudy
1:53 AM 48.0 °F - 46.0 °F 93% 29.61 in 10.0 mi WSW 15.0 mph 20.7 mph N/A   Overcast
2:53 AM 44.1 °F 37.1 °F 43.0 °F 96% 29.64 in 10.0 mi WNW 15.0 mph 21.9 mph N/A   Overcast
3:20 AM 42.8 °F 37.0 °F 42.8 °F 100% 29.67 in 10.0 mi WNW 10.4 mph - N/A   Overcast
3:53 AM 42.1 °F 34.9 °F 39.9 °F 92% 29.70 in 10.0 mi WNW 13.8 mph 24.2 mph 0.00 in Rain Light Rain
4:53 AM 39.9 °F 31.8 °F 39.0 °F 97% 29.73 in 6.0 mi West 15.0 mph 21.9 mph 0.00 in   Overcast
5:53 AM 39.9 °F 33.9 °F 39.0 °F 97% 29.75 in 10.0 mi West 9.2 mph - 0.00 in Rain Light Rain
6:53 AM 37.9 °F 30.9 °F 37.9 °F 100% 29.81 in 4.0 mi WNW 10.4 mph - 0.00 in Rain Light Rain
7:53 AM 37.4 °F 28.9 °F 35.6 °F 93% 29.84 in 10.0 mi West 13.8 mph - N/A   Overcast
8:03 AM 37.4 °F 28.9 °F 35.6 °F 93% 29.85 in 10.0 mi WNW 13.8 mph - N/A   Overcast
8:51 AM 37.4 °F 29.8 °F 35.6 °F 93% 29.89 in 10.0 mi West 11.5 mph - N/A   Overcast
8:53 AM 37.9 °F 30.0 °F 36.0 °F 93% 29.89 in 10.0 mi West 12.7 mph - N/A   Overcast
9:53 AM 37.9 °F 30.9 °F 36.0 °F 93% 29.90 in 10.0 mi West 10.4 mph - N/A   Overcast
10:32 AM 39.2 °F 31.6 °F 35.6 °F 87% 29.93 in 10.0 mi West 12.7 mph 21.9 mph N/A   Overcast
10:43 AM 39.2 °F 32.5 °F 35.6 °F 87% 29.93 in 10.0 mi West 10.4 mph - N/A   Overcast
10:51 AM 39.2 °F 31.2 °F 35.6 °F 87% 29.93 in 10.0 mi West 13.8 mph - N/A   Overcast
10:53 AM 39.0 °F 31.8 °F 35.1 °F 86% 29.94 in 10.0 mi West 11.5 mph - N/A   Overcast
11:42 AM 39.2 °F 31.6 °F 35.6 °F 87% 29.96 in 10.0 mi West 12.7 mph 19.6 mph N/A   Overcast
11:53 AM 39.0 °F 31.4 °F 35.1 °F 86% 29.96 in 10.0 mi West 12.7 mph - N/A   Overcast
12:53 PM 39.9 °F 35.8 °F 36.0 °F 86% 29.94 in 10.0 mi WSW 5.8 mph - N/A   Overcast
1:29 PM 39.2 °F 35.0 °F 35.6 °F 87% 29.93 in 10.0 mi West 5.8 mph - N/A   Overcast
1:53 PM 39.9 °F 33.9 °F 35.1 °F 83% 29.94 in 10.0 mi West 9.2 mph - N/A   Overcast
2:01 PM 39.2 °F 32.5 °F 35.6 °F 87% 29.95 in 10.0 mi West 10.4 mph - N/A   Overcast
2:15 PM 39.2 °F 32.5 °F 33.8 °F 81% 29.96 in 10.0 mi West 10.4 mph - N/A   Overcast
2:53 PM 39.9 °F 33.4 °F 34.0 °F 79% 29.99 in 10.0 mi West 10.4 mph - N/A   Overcast
3:53 PM 39.9 °F 33.9 °F 33.1 °F 77% 30.03 in 10.0 mi West 9.2 mph - N/A   Overcast
4:53 PM 39.9 °F 33.9 °F 33.1 °F 77% 30.06 in 10.0 mi West 9.2 mph - N/A   Overcast
5:53 PM 39.9 °F 37.8 °F 33.1 °F 77% 30.07 in 10.0 mi SW 3.5 mph - N/A   Overcast
6:53 PM 39.9 °F - 34.0 °F 79% 30.08 in 10.0 mi Calm Calm - N/A   Overcast
7:53 PM 39.9 °F - 35.1 °F 83% 30.09 in 10.0 mi Calm Calm - N/A   Overcast
8:53 PM 39.9 °F - 34.0 °F 79% 30.09 in 10.0 mi Calm Calm - N/A   Overcast
9:53 PM 37.0 °F - 34.0 °F 89% 30.08 in 10.0 mi Calm Calm - N/A   Mostly Cloudy
10:04 PM 35.6 °F - 33.8 °F 93% 30.05 in 10.0 mi Calm Calm - N/A   Scattered Clouds
10:53 PM 35.1 °F - 33.1 °F 92% 30.07 in 7.0 mi Calm Calm - N/A   Clear
11:53 PM 34.0 °F - 32.0 °F 92% 30.07 in 7.0 mi Calm Calm - N/A   Clear